Flag for Germany Weather past 2 weeks in Wertheim, Baden-Württemberg, Germany

Now
34 °F

Low clouds.


Feels Like: 34 °F
Forecast: 32 / 36 °F
Wind: 1 mph from West

Location: Wuerzburg

Current Time: Jan 26, 2015 at 1:41:27 AM

Latest Report: Jan 26, 2015 at 1:00 AM


Visibility: 8 mi

Pressure: 30.37 "Hg

Humidity: 93%

Dew point: 33 °F

Location of WertheimLocation

Historic Weather in Wertheim — Graph

°F

Wertheim temperature yesterday

Maximum temperature yesterday: 36 °F (at 12:00 PM)
Minimum temperature yesterday: 32 °F (at 4:00 AM)
Average temperature yesterday: 34 °F

Past Weeks' High & Low Weather Summary

 TemperatureHumidityPressure
High55 °F (Jan 13, 3:00 PM)100% (Jan 16, 6:00 PM)30.43 "Hg (Jan 16, 6:00 PM)
Low26 °F (Jan 21, 7:00 AM)37% (Jan 13, 2:00 PM)29.71 "Hg (Jan 15, 8:00 PM)
Average37 °F85%30.02 "Hg
* Reported Midnight between Jan 10 and Jan 11 — Midnight between Jan 25 and Jan 26, Wertheim, Weather by CustomWeather, © 2014

Note: Actual official high and low records may vary slightly from our data, if they occured in-between our weather recording intervals... More about our weather records

Advertising

Wertheim weather history for previous 24 hours

 ConditionsComfort  
Time TempWeatherWind HumidityBarometerVisibility
12:00 AM
Jan 26
34 °FLow clouds.3 mph93%30.39 "Hg7 mi
11:00 PM
Jan 25
34 °FOvercast.3 mph94%30.39 "Hg7 mi
10:00 PM35 °FOvercast.3 mph92%30.40 "Hg7 mi
9:00 PM35 °FOvercast.3 mph92%30.41 "Hg9 mi
8:00 PM35 °FOvercast.3 mph90%30.41 "Hg9 mi
7:00 PM35 °FOvercast.2 mph91%30.41 "Hg9 mi
6:00 PM35 °FOvercast.3 mph91%30.40 "Hg9 mi
5:00 PM35 °FOvercast.5 mph89%30.40 "Hg11 mi
4:00 PM36 °FOvercast.6 mph87%30.39 "Hg12 mi
3:00 PM36 °FOvercast.7 mph86%30.38 "Hg12 mi
2:00 PM36 °FOvercast.7 mph87%30.40 "Hg12 mi
1:00 PM36 °FOvercast.6 mph85%30.41 "Hg12 mi
12:00 PM36 °FPartly sunny.5 mph88%30.42 "Hg12 mi
11:00 AM35 °FOvercast.6 mph86%30.43 "Hg16 mi
10:00 AM33 °FPartly sunny.5 mph92%30.42 "Hg10 mi
9:00 AM33 °FOvercast.3 mph95%30.41 "Hg10 mi
8:00 AM33 °FOvercast.6 mph94%30.39 "Hg11 mi
7:00 AM32 °FPassing clouds.3 mph92%30.37 "Hg14 mi
6:00 AM33 °FPassing clouds.3 mph89%30.35 "Hg14 mi
4:00 AM32 °FPassing clouds.2 mph94%30.32 "Hg9 mi
3:00 AM33 °FPassing clouds.3 mph93%30.30 "Hg8 mi
2:00 AM33 °FOvercast.2 mph93%30.29 "Hg6 mi
1:00 AM33 °FLow clouds.2 mph95%30.27 "Hg5 mi
Weather by CustomWeather, © 2014

See weather overviewHow to use our weather pages